sat.trackr.live / text

‹ back to catalog

ONEWEB-0500

NORAD 54118 · 2022-138F

PAYLOAD ACTIVE UNKNOWN

§ Identity

Operator
Country
UK
Launch date
2022-10-22
Launch site
SRILR
Launch vehicle
Mass (kg)
RCS (m²)

Purposes: comms

External: N2YO · Heavens-Above · Gunter

§ Orbital elements

Epoch: 2026-05-25T03:55:41.552832Z

Period
109.11 min
Inclination
87.9159°
Eccentricity
0.0001785
Mean motion
13.19727150 rev/d
Perigee alt
1,184.4 km
Apogee alt
1,187.1 km
Semi-major
7,563.9 km
B*
1.9146e-4
RAAN
309.5543°
Arg perigee
96.2459°
Mean anomaly
263.8877°
Rev number
17,379

§ Raw data

ONEWEB-05001 54118U 22138F   26145.16367538  .00000090  00000+0  19146-3 0  99942 54118  87.9159 309.5543 0001785  96.2459 263.8877 13.19727150173799

JSON: /api/v1/satellites/54118 · /tle

For live sub-satellite position, see the globe view (requires WebGL).

§ Visibility from observer

Set your observer location to see the next 7 days of passes ≥ 10°. The values pass through the URL so the page stays shareable.

No JS? Fill the form by hand. The geolocation button needs JavaScript.